BEIDOU-3 M12 (C26)

Last updated on Thu Oct 16 2025 00:03:24 GMT+0000 (Coordinated Universal Time)

1 43602U 18067A 25287.51888102 -.00000037 00000+0 00000+0 0 9993 2 43602 54.1849 189.3729 0008584 34.4355 325.6663 1.86227579 48545
UTC large
Height (km)
Speed (km/s)
/
Latitude / Longitude
Inclination (degrees)
Orbital Period (minutes)
Azimuth
Elevation
Range (km)
Doppler Factor

Next 0 passes for location: London (51.5072 / 0.1276)

Sorry there are no passes over London.